This is the latest recevied weather packets stored in our database for station/object N4MGC. If no packets are shown the sender has not sent any weather packets the latest 10 day(s).
| Time | Temp. | Humidity | Pressure | Rain* | Wind** | Luminosity | Snow |
|---|---|---|---|---|---|---|---|
| 1777949281 | 16.11° C | 84% | 1013.2 hPa | 0 mm | - | 0 W/m² | - |
| 1777948978 | 16.11° C | 84% | 1013.3 hPa | 0 mm | - | 0 W/m² | - |
| 1777948676 | 16.11° C | 83% | 1013.4 hPa | 0 mm | - | 0 W/m² | - |
| 1777948372 | 16.11° C | 84% | 1013.3 hPa | 0 mm | - | 0 W/m² | - |
| 1777948070 | 16.67° C | 84% | 1013.3 hPa | 0 mm | - | 0 W/m² | - |
| 1777947767 | 16.67° C | 83% | 1013.1 hPa | 0 mm | - | 0 W/m² | - |
| 1777947463 | 16.67° C | 83% | 1013.1 hPa | 0 mm | - | 0 W/m² | - |
| 1777947160 | 16.67° C | 82% | 1013.2 hPa | 0 mm | - | 0 W/m² | - |
| 1777946856 | 16.67° C | 84% | 1013.4 hPa | 0 mm | - | 0 W/m² | - |
| 1777946551 | 16.67° C | 83% | 1013.1 hPa | 0 mm | - | 0 W/m² | - |
| 1777946249 | 16.67° C | 82% | 1013 hPa | 0 mm | - | 0 W/m² | - |
| 1777945946 | 16.67° C | 82% | 1013 hPa | 0 mm | - | 0 W/m² | - |
| 1777945643 | 16.67° C | 81% | 1012.9 hPa | 0 mm | - | 0 W/m² | - |
| 1777945340 | 17.22° C | 81% | 1012.8 hPa | 0 mm | - | 0 W/m² | - |
| 1777945037 | 17.22° C | 78% | 1012.6 hPa | 0 mm | - | 0 W/m² | - |
| 1777944734 | 17.22° C | 79% | 1012.8 hPa | 0 mm | - | 0 W/m² | - |
| 1777944432 | 17.22° C | 80% | 1012.6 hPa | 0 mm | - | 0 W/m² | - |
| 1777944129 | 17.22° C | 81% | 1012.7 hPa | 0 mm | - | 0 W/m² | - |
| 1777943824 | 17.78° C | 77% | 1012.7 hPa | 0 mm | - | 0 W/m² | - |
| 1777943522 | 17.78° C | 75% | 1012.6 hPa | 0 mm | - | 0 W/m² | - |
| 1777943217 | 18.33° C | 74% | 1012.5 hPa | 0 mm | - | 0 W/m² | - |
| 1777942914 | 18.33° C | 73% | 1012.6 hPa | 0 mm | - | 0 W/m² | - |
| 1777942610 | 18.89° C | 71% | 1012.6 hPa | 0 mm | - | 0 W/m² | - |
| 1777942308 | 18.89° C | 70% | 1012.4 hPa | 0 mm | - | 0 W/m² | - |
| 1777942005 | 18.89° C | 69% | 1012.4 hPa | 0 mm | - | 0 W/m² | - |
* Rain latest hour (hover to see other rain measurements)
** Current wind speed in m/s (hover to see current wind gust speed)